FW7858 Weather Reports


Display with metric or nautical units.
time (UTC)temp
F
wind
direction
speed
MPH
gust
MPH
rain 1hr
in
rain 24hr
in
rain mn
in
humidity
%
barometer
mb
20260506202540 41 360 4.0 14.0 0.00 0.00 0.00 55 1015.9
20260506202040 41 360 3.0 14.0 0.00 0.00 0.00 54 1016.0
20260506201541 42 360 3.0 9.0 0.00 0.00 0.00 55 1016.0
20260506201040 41 360 3.0 10.0 0.00 0.00 0.00 55 1016.0
20260506200538 41 360 5.0 10.0 0.00 0.00 0.00 54 1016.0
20260506200044 41 360 5.0 14.0 0.00 0.00 0.00 56 1016.0
20260506195538 41 360 5.0 14.0 0.00 0.00 0.00 55 1016.1
20260506195039 41 360 3.0 13.0 0.00 0.00 0.00 54 1016.0
20260506194544 42 360 6.0 13.0 0.00 0.00 0.00 53 1016.1
20260506194037 42 360 4.0 12.0 0.00 0.00 0.00 55 1016.1
20260506193541 42 360 1.0 12.0 0.00 0.00 0.00 55 1016.2
20260506193037 41 360 5.0 16.0 0.00 0.00 0.00 54 1016.1
20260506192536 42 360 8.0 16.0 0.00 0.00 0.00 54 1016.2
20260506192039 42 360 7.0 14.0 0.00 0.00 0.00 53 1016.1
20260506191534 41 360 4.0 13.0 0.00 0.00 0.00 55 1016.1
20260506191033 41 360 6.0 13.0 0.00 0.00 0.00 54 1016.1
20260506190533 41 360 6.0 12.0 0.00 0.00 0.00 54 1016.1
20260506190032 41 360 6.0 12.0 0.00 0.00 0.00 54 1016.2
20260506185532 41 360 5.0 11.0 0.00 0.00 0.00 54 1016.3
20260506185034 41 360 2.0 14.0 0.00 0.00 0.00 56 1016.3
20260506184531 41 360 9.0 15.0 0.00 0.00 0.00 54 1016.3
20260506184032 41 360 5.0 13.0 0.00 0.00 0.00 56 1016.3
20260506183531 40 360 5.0 16.0 0.00 0.00 0.00 56 1016.4
20260506183132 41 360 11.0 16.0 0.00 0.00 0.00 54 1016.4
20260506182529 41 360 4.0 12.0 0.00 0.00 0.00 57 1016.4
20260506182030 40 360 3.0 14.0 0.00 0.00 0.00 56 1016.4
20260506181529 40 360 7.0 13.0 0.00 0.00 0.00 56 1016.5
20260506181031 40 360 5.0 14.0 0.00 0.00 0.00 56 1016.5
20260506180528 40 360 5.0 16.0 0.00 0.00 0.00 56 1016.5
20260506180025 40 360 11.0 16.0 0.00 0.00 0.00 55 1016.6
20260506175523 40 360 10.0 14.0 0.00 0.00 0.00 56 1016.6
20260506175023 40 360 3.0 16.0 0.00 0.00 0.00 56 1016.7
20260506174523 39 360 11.0 16.0 0.00 0.00 0.00 56 1016.6
20260506174022 40 360 10.0 17.0 0.00 0.00 0.00 57 1016.7
20260506173522 40 360 5.0 11.0 0.00 0.00 0.00 56 1016.8
20260506173022 40 360 2.0 9.0 0.00 0.00 0.00 58 1016.9
20260506172520 39 360 3.0 11.0 0.00 0.00 0.00 59 1016.9
20260506172019 39 360 8.0 12.0 0.00 0.00 0.00 57 1016.9
20260506171532 39 360 8.0 13.0 0.00 0.00 0.00 57 1017.0
20260506171018 40 360 2.0 9.0 0.00 0.00 0.00 59 1017.0
20260506170518 40 360 1.0 13.0 0.00 0.00 0.00 58 1017.0
20260506170017 39 360 2.0 13.0 0.00 0.00 0.00 58 1017.0
20260506165518 39 360 2.0 17.0 0.00 0.00 0.00 59 1017.0
20260506165016 39 360 7.0 17.0 0.00 0.00 0.00 58 1017.0
20260506164519 39 360 3.0 14.0 0.00 0.00 0.00 60 1017.0
20260506164017 39 360 2.0 15.0 0.00 0.00 0.00 59 1017.1
20260506163518 39 360 2.0 10.0 0.00 0.00 0.00 57 1017.2
20260506163015 39 360 2.0 11.0 0.00 0.00 0.00 60 1017.2
20260506162513 39 360 1.0 10.0 0.00 0.00 0.00 60 1017.2
20260506162012 38 360 2.0 11.0 0.00 0.00 0.00 59 1017.0
20260506161512 39 360 1.0 13.0 0.00 0.00 0.00 59 1017.2
20260506161013 39 360 6.0 13.0 0.00 0.00 0.00 59 1017.2
20260506160511 38 360 2.0 12.0 0.00 0.00 0.00 60 1017.3
20260506160010 38 360 1.0 9.0 0.00 0.00 0.00 60 1017.2
20260506155508 38 360 2.0 13.0 0.00 0.00 0.00 60 1017.3
20260506155011 38 360 7.0 13.0 0.00 0.00 0.00 59 1017.3
20260506154507 38 360 1.0 6.0 0.00 0.00 0.00 60 1017.4
20260506154007 38 360 2.0 9.0 0.00 0.00 0.00 58 1017.4
20260506153507 38 360 2.0 6.0 0.00 0.00 0.00 58 1017.5
20260506153005 38 360 2.0 8.0 0.00 0.00 0.00 59 1017.4
20260506152507 38 360 2.0 8.0 0.00 0.00 0.00 57 1017.4
20260506152005 38 360 3.0 8.0 0.00 0.00 0.00 58 1017.4
20260506151504 38 360 2.0 10.0 0.00 0.00 0.00 57 1017.4
20260506151007 38 360 2.0 11.0 0.00 0.00 0.00 58 1017.4
20260506150605 38 360 2.0 11.0 0.00 0.00 0.00 58 1017.4
20260506150007 38 360 2.0 8.0 0.00 0.00 0.00 59 1017.4
20260506145502 37 360 2.0 11.0 0.00 0.00 0.00 58 1017.3
20260506145000 37 360 5.0 11.0 0.00 0.00 0.00 60 1017.4
20260506144617 37 360 1.0 4.0 0.00 0.00 0.00 61 1017.3
20260506144100 36 360 1.0 6.0 0.00 0.00 0.00 61 1017.4
20260506143558 36 360 2.0 6.0 0.00 0.00 0.00 61 1017.4
20260506143100 36 360 1.0 5.0 0.00 0.00 0.00 61 1017.4
20260506142557 36 360 2.0 6.0 0.00 0.00 0.00 61 1017.4
20260506142056 36 360 2.0 6.0 0.00 0.00 0.00 60 1017.5
20260506141558 36 360 1.0 5.0 0.00 0.00 0.00 61 1017.4
20260506141055 36 360 2.0 8.0 0.00 0.00 0.00 62 1017.3
20260506140555 35 360 2.0 5.0 0.00 0.00 0.00 62 1017.2
20260506140105 35 360 2.0 4.0 0.00 0.00 0.00 62 1017.2
20260506135554 35 360 2.0 6.0 0.00 0.00 0.00 63 1017.2
20260506135053 35 360 3.0 8.0 0.00 0.00 0.00 63 1017.2
20260506134553 35 360 1.0 8.0 0.00 0.00 0.00 64 1017.2
20260506134053 35 360 3.0 8.0 0.00 0.00 0.00 64 1017.2
20260506133554 35 360 3.0 8.0 0.00 0.00 0.00 65 1017.2
20260506133052 35 360 1.0 4.0 0.00 0.00 0.00 65 1017.3
20260506132552 34 360 1.0 4.0 0.00 0.00 0.00 67 1017.2
20260506132050 34 360 1.0 8.0 0.00 0.00 0.00 67 1017.0
20260506131553 34 360 0.0 8.0 0.00 0.00 0.00 68 1017.1
20260506131049 34 360 1.0 5.0 0.00 0.00 0.00 69 1017.0
20260506130550 34 360 0.0 5.0 0.00 0.00 0.00 69 1016.9
20260506130105 34 360 1.0 6.0 0.00 0.00 0.00 70 1017.0
20260506125548 34 360 2.0 6.0 0.00 0.00 0.00 69 1017.0
20260506125047 34 360 1.0 3.0 0.00 0.00 0.00 70 1016.9
20260506124547 33 360 1.0 4.0 0.00 0.00 0.00 70 1016.9
20260506124049 33 360 1.0 4.0 0.00 0.00 0.00 70 1016.8
20260506123548 33 360 0.0 5.0 0.00 0.00 0.00 70 1016.8
20260506123047 33 360 1.0 5.0 0.00 0.00 0.00 70 1016.8
20260506122546 33 360 0.0 3.0 0.00 0.00 0.00 70 1016.7
20260506122045 33 360 0.0 3.0 0.00 0.00 0.00 71 1016.7
20260506121544 33 360 0.0 3.0 0.00 0.00 0.00 70 1016.6
20260506121043 33 360 0.0 3.0 0.00 0.00 0.00 71 1016.5
20260506120543 33 360 0.0 3.0 0.00 0.00 0.00 71 1016.4
20260506120043 33 360 0.0 3.0 0.00 0.00 0.00 71 1016.4
20260506115542 33 360 0.0 3.0 0.00 0.00 0.00 70 1016.3
20260506115043 33 360 0.0 3.0 0.00 0.00 0.00 70 1016.3
20260506114545 33 360 0.0 3.0 0.00 0.00 0.00 70 1016.2
20260506114041 33 360 1.0 3.0 0.00 0.00 0.00 70 1016.2
20260506113541 33 360 0.0 2.0 0.00 0.00 0.00 71 1016.3
20260506113040 33 360 0.0 2.0 0.00 0.00 0.00 70 1016.2
20260506112540 33 360 0.0 2.0 0.00 0.00 0.00 70 1016.1
20260506112039 33 360 0.0 2.0 0.00 0.00 0.00 70 1016.1
20260506111541 33 360 0.0 2.0 0.00 0.00 0.00 70 1016.1
20260506111038 33 360 0.0 2.0 0.00 0.00 0.00 70 1016.1
20260506110539 33 360 0.0 1.0 0.00 0.00 0.00 70 1016.1
20260506110046 34 360 0.0 2.0 0.00 0.00 0.00 70 1016.1
20260506105538 33 360 1.0 3.0 0.00 0.00 0.00 69 1016.0
20260506105038 33 360 0.0 3.0 0.00 0.00 0.00 70 1015.9
20260506104537 33 360 0.0 3.0 0.00 0.00 0.00 70 1015.9
20260506104037 34 360 0.0 2.0 0.00 0.00 0.00 70 1015.8
20260506103537 34 360 0.0 2.0 0.00 0.00 0.00 70 1015.9
20260506103036 34 360 0.0 2.0 0.00 0.00 0.00 70 1015.9
20260506102539 34 360 0.0 2.0 0.00 0.00 0.00 70 1015.8
20260506102036 34 360 0.0 2.0 0.00 0.00 0.00 70 1015.8
20260506101549 34 360 0.0 1.0 0.00 0.00 0.00 71 1015.7
20260506101033 34 360 0.0 2.0 0.00 0.00 0.00 71 1015.7
20260506100534 34 360 0.0 2.0 0.00 0.00 0.00 70 1015.7
20260506100035 34 360 0.0 2.0 0.00 0.00 0.00 70 1015.7
20260506095533 34 360 0.0 2.0 0.00 0.00 0.00 70 1015.6
20260506095032 34 360 0.0 2.0 0.00 0.00 0.00 70 1015.6
20260506094531 34 360 0.0 2.0 0.00 0.00 0.00 70 1015.6
20260506094032 34 360 0.0 5.0 0.00 0.00 0.00 70 1015.6
20260506093531 34 360 2.0 5.0 0.00 0.00 0.00 69 1015.5
20260506093032 34 360 1.0 4.0 0.00 0.00 0.00 69 1015.5
20260506092530 34 360 1.0 5.0 0.00 0.00 0.00 69 1015.5
20260506092032 34 360 1.0 5.0 0.00 0.00 0.00 69 1015.5
20260506091530 34 360 2.0 5.0 0.00 0.00 0.00 69 1015.5
20260506091028 34 360 2.0 5.0 0.00 0.00 0.00 69 1015.5
20260506090527 34 360 0.0 3.0 0.00 0.00 0.00 69 1015.4
20260506090027 34 360 0.0 3.0 0.00 0.00 0.00 69 1015.4
20260506085527 34 360 0.0 5.0 0.00 0.00 0.00 69 1015.5
20260506085027 34 360 2.0 5.0 0.00 0.00 0.00 69 1015.5
20260506084529 34 360 1.0 4.0 0.00 0.00 0.00 68 1015.4
20260506084026 34 360 1.0 6.0 0.00 0.00 0.00 68 1015.4
20260506083529 34 360 2.0 6.0 0.00 0.00 0.00 68 1015.4
20260506083024 34 360 2.0 6.0 0.00 0.00 0.00 68 1015.3
20260506082524 34 360 1.0 6.0 0.00 0.00 0.00 68 1015.3
20260506082026 34 360 1.0 5.0 0.00 0.00 0.00 69 1015.3
20260506081523 34 360 1.0 5.0 0.00 0.00 0.00 68 1015.3
20260506081023 34 360 1.0 5.0 0.00 0.00 0.00 68 1015.3
20260506080522 35 360 1.0 3.0 0.00 0.00 0.00 68 1015.2
20260506073521 35 360 2.0 4.0 0.00 0.00 0.00 68 1015.4
20260506073019 35 360 2.0 5.0 0.00 0.00 0.00 68 1015.3
20260506072518 35 360 2.0 8.0 0.00 0.00 0.00 68 1015.3
20260506072018 35 360 3.0 8.0 0.00 0.00 0.00 67 1015.3
20260506071518 35 360 2.0 6.0 0.00 0.00 0.00 68 1015.4
20260506071015 35 360 1.0 6.0 0.00 0.00 0.00 67 1015.5
20260506070516 35 360 1.0 4.0 0.00 0.00 0.00 67 1015.4
20260506062013 35 360 2.0 5.0 0.00 0.00 0.00 67 1015.3
20260506061512 35 360 2.0 4.0 0.00 0.00 0.00 67 1015.3
20260506061019 35 360 1.0 4.0 0.00 0.00 0.00 67 1015.3
20260506060511 35 360 1.0 4.0 0.00 0.00 0.00 67 1015.3
20260506051004 36 360 2.0 4.0 0.00 0.00 0.00 67 1015.0
20260506050508 36 360 1.0 4.0 0.00 0.00 0.00 67 1015.0
20260506045002 36 360 0.0 3.0 0.00 0.00 0.00 67 1014.9
20260506044502 36 360 1.0 3.0 0.00 0.00 0.00 67 1014.9
20260506044001 36 360 0.0 2.0 0.00 0.00 0.00 67 1014.9
20260506043503 36 360 0.0 3.0 0.00 0.00 0.00 67 1014.9
20260506043001 36 360 0.0 4.0 0.00 0.00 0.00 66 1014.8
20260506042502 36 360 1.0 4.0 0.00 0.00 0.00 66 1014.9
20260506042005 36 360 1.0 4.0 0.00 0.00 0.00 67 1014.9
20260506041502 36 360 2.0 4.0 0.00 0.00 0.00 66 1014.9
20260506041001 36 360 1.0 5.0 0.00 0.00 0.00 66 1014.9
20260506040601 36 360 1.0 5.0 0.00 0.00 0.00 66 1014.9
20260506040100 36 360 2.0 6.0 0.00 0.00 0.00 66 1014.9
20260506040001 36 360 2.0 6.0 0.00 0.00 0.00 66 1014.8
20260506035601 35 360 1.0 6.0 0.00 0.00 0.00 66 1014.7
20260506035059 35 360 0.0 2.0 0.00 0.00 0.00 67 1014.7
20260506034600 35 360 0.0 2.0 0.00 0.00 0.00 67 1014.7
20260506034058 35 360 0.0 3.0 0.00 0.00 0.00 66 1014.6
20260506033557 35 360 0.0 3.0 0.00 0.00 0.00 66 1014.5
20260506033110 35 360 0.0 2.0 0.00 0.00 0.00 66 1014.5
20260506032557 35 360 0.0 2.0 0.00 0.00 0.00 66 1014.4
20260506032056 35 360 0.0 2.0 0.00 0.00 0.00 66 1014.5
20260506031558 35 360 0.0 2.0 0.00 0.00 0.00 65 1014.5
20260506031059 35 360 0.0 2.0 0.00 0.00 0.00 65 1014.5
20260506030600 35 360 0.0 3.0 0.00 0.00 0.00 65 1014.4
20260506030055 35 360 1.0 3.0 0.00 0.00 0.00 65 1014.4
20260506025556 35 360 0.0 1.0 0.00 0.00 0.00 65 1014.4
20260506025054 35 360 0.0 1.0 0.00 0.00 0.00 65 1014.3
20260506024554 36 360 0.0 1.0 0.00 0.00 0.00 64 1014.2
20260506024053 36 360 0.0 2.0 0.00 0.00 0.00 64 1014.2
20260506023554 36 360 0.0 2.0 0.00 0.00 0.00 63 1014.1
20260506023053 36 360 0.0 1.0 0.00 0.00 0.00 62 1014.0
20260506022551 36 360 0.0 2.0 0.00 0.00 0.00 62 1014.1
20260506022051 37 360 0.0 2.0 0.00 0.00 0.00 62 1014.0
20260506021555 37 360 0.0 3.0 0.00 0.00 0.00 61 1013.9
20260506021049 37 360 0.0 3.0 0.00 0.00 0.00 61 1013.9
20260506020549 37 360 0.0 3.0 0.00 0.00 0.00 61 1013.7
20260506020049 38 360 0.0 3.0 0.00 0.00 0.00 61 1013.7
20260506015552 38 360 0.0 3.0 0.00 0.00 0.00 60 1013.6
20260506015048 38 360 0.0 3.0 0.00 0.00 0.00 60 1013.6
20260506014553 38 360 1.0 5.0 0.00 0.00 0.00 59 1013.5
20260506014049 38 360 0.0 8.0 0.00 0.00 0.00 59 1013.5
20260506013549 38 360 2.0 8.0 0.00 0.00 0.00 58 1013.5
20260506013046 39 360 2.0 5.0 0.00 0.00 0.00 58 1013.4
20260506012546 39 360 1.0 4.0 0.00 0.00 0.00 58 1013.5
20260506012044 39 360 2.0 4.0 0.00 0.00 0.00 58 1013.4
20260506011545 39 360 1.0 5.0 0.00 0.00 0.00 57 1013.3
20260506011044 39 360 2.0 5.0 0.00 0.00 0.00 56 1013.4
20260506010545 40 360 1.0 6.0 0.00 0.00 0.00 58 1013.3
20260506010046 40 360 0.0 6.0 0.00 0.00 0.00 56 1013.2
20260506005542 40 360 1.0 3.0 0.00 0.00 0.00 57 1013.1
20260506005044 40 360 1.0 3.0 0.00 0.00 0.00 55 1013.0
20260506004545 40 360 0.0 4.0 0.00 0.00 0.00 56 1013.0
20260506004042 40 360 1.0 6.0 0.00 0.00 0.00 55 1012.9
20260506003543 40 360 2.0 6.0 0.00 0.00 0.00 54 1012.9
20260506003042 41 360 0.0 4.0 0.00 0.00 0.00 55 1013.0
20260506002545 41 360 1.0 8.0 0.00 0.00 0.00 54 1013.0
20260506002041 41 360 3.0 9.0 0.00 0.00 0.00 54 1013.0
20260506001604 41 360 1.0 9.0 0.00 0.00 0.00 54 1013.0
20260506001042 41 360 3.0 6.0 0.00 0.00 0.00 55 1013.0
20260506000542 41 360 1.0 5.0 0.00 0.00 0.00 56 1013.0
20260506000046 41 360 2.0 5.0 0.00 0.00 0.00 55 1013.0
20260505235541 41 360 2.0 5.0 0.00 0.00 0.00 54 1013.1
20260505235041 41 360 2.0 6.0 0.00 0.00 0.00 55 1013.1
20260505234548 41 360 3.0 6.0 0.00 0.00 0.00 54 1013.1
20260505234042 41 360 2.0 6.0 0.00 0.00 0.00 53 1013.1
20260505233539 41 360 0.0 8.0 0.00 0.00 0.00 54 1013.0
20260505233046 41 360 2.0 8.0 0.00 0.00 0.00 53 1013.0
20260505232539 41 360 1.0 6.0 0.00 0.00 0.00 53 1013.0
20260505232039 41 360 2.0 6.0 0.00 0.00 0.00 53 1013.0
20260505231548 41 360 1.0 10.0 0.00 0.00 0.00 53 1013.0
20260505231038 41 360 3.0 10.0 0.00 0.00 0.00 53 1013.1
20260505230538 41 360 1.0 9.0 0.00 0.00 0.00 53 1013.0
20260505230039 41 360 2.0 10.0 0.00 0.00 0.00 53 1013.0
20260505225538 41 360 2.0 8.0 0.00 0.00 0.00 54 1012.9
20260505225038 41 360 2.0 10.0 0.00 0.00 0.00 53 1013.0
20260505224541 41 360 1.0 10.0 0.00 0.00 0.00 53 1012.9
20260505224039 42 360 2.0 9.0 0.00 0.00 0.00 54 1012.9
20260505223537 42 360 2.0 5.0 0.00 0.00 0.00 54 1012.9
20260505223043 41 360 2.0 8.0 0.00 0.00 0.00 55 1012.7
20260505222537 42 360 3.0 8.0 0.00 0.00 0.00 54 1012.8
20260505222037 41 360 2.0 6.0 0.00 0.00 0.00 54 1012.8
20260505221541 42 360 2.0 9.0 0.00 0.00 0.00 55 1012.8
20260505221036 42 360 1.0 6.0 0.00 0.00 0.00 56 1012.8
20260505220540 41 360 3.0 6.0 0.00 0.00 0.00 56 1012.7
20260505220041 41 360 1.0 8.0 0.00 0.00 0.00 58 1012.8
20260505215538 41 360 1.0 10.0 0.00 0.00 0.00 57 1012.7
20260505215036 41 360 2.0 10.0 0.00 0.00 0.00 57 1012.8
20260505214555 42 360 3.0 6.0 0.00 0.00 0.00 54 1012.7
20260505214035 41 360 1.0 5.0 0.00 0.00 0.00 56 1012.7
20260505213535 41 360 1.0 13.0 0.00 0.00 0.00 56 1012.8
20260505213050 41 360 2.0 6.0 0.00 0.00 0.00 56 1012.9
20260505212535 41 360 2.0 11.0 0.00 0.00 0.00 56 1012.9
20260505212035 41 360 2.0 8.0 0.00 0.00 0.00 56 1012.9
20260505211535 41 360 2.0 6.0 0.00 0.00 0.00 57 1012.9
20260505211035 41 360 3.0 8.0 0.00 0.00 0.00 57 1012.7
20260505210534 41 360 2.0 8.0 0.00 0.00 0.00 56 1012.8
20260505210034 41 360 3.0 13.0 0.00 0.00 0.00 57 1012.8
20260505205535 40 360 5.0 13.0 0.00 0.00 0.00 56 1012.8
20260505205034 41 360 3.0 6.0 0.00 0.00 0.00 56 1012.8
20260505204537 41 360 2.0 9.0 0.00 0.00 0.00 56 1012.8
20260505204034 41 360 2.0 10.0 0.00 0.00 0.00 57 1012.8
20260505203533 40 360 2.0 6.0 0.00 0.00 0.00 57 1012.9
20260505203043 40 360 2.0 6.0 0.00 0.00 0.00 58 1012.8